Temp
0 1 1 0 0 1 2 3 3 3 3 4 5 5 6 6 6 6 6 5 5 5 5 5 5 5 6 6 6 6 5 6 5 5 5 5 5 5 5 4 4 4 4
1 0 0 2 2 1 1 0 2 2 3 3 3 4 4 4 5 5 5 5 5 6 5 5 5 5 5 5 5 6 6 6 5 5 5 5 5 5 4 4 3 3 3
1 1 1 3 2 1 1 1 1 2 2 3 3 3 3 4 4 4 5 5 5 4 4 4 5 4 4 4 4 4 4 4 4 4 4 4 4 4 3 3 3 3 2
0 0 1 1 1 0 1 1 1 1 1 2 3 3 3 3 3 3 3 3 3 3 4 4 4 4 4 4 4 4 4 3 3 3 4 3 3 3 3 3 2 2 2
-0 -0 0 1 -0 0 1 2 1 -0 -0 1 2 3 3 3 3 3 3 3 3 3 3 3 3 4 4 4 4 4 4 3 3 3 3 3 3 2 2 2 2 1 1
-0 -0 -0 -0 -0 0 0 -1 -0 0 -0 1 1 2 2 2 2 2 2 2 2 2 3 3 3 3 3 3 3 3 3 3 3 3 3 2 2 1 1 1 0 -0 -0
0 0 0 -0 -0 -0 -0 -0 -1 -0 -0 -0 -0 0 1 2 2 2 2 2 2 2 2 2 2 2 2 2 2 2 2 2 2 2 1 1 1 0 0 -0 -0 -0 -1
-0 -0 -0 0 0 0 -0 1 -0 -0 -1 -1 -1 -1 0 1 1 1 1 1 1 1 1 1 2 2 1 1 1 1 2 2 2 1 1 1 1 0 -0 -0 -1 -1 -1
0 0 -0 -0 -0 -0 0 0 -0 -0 0 0 -1 -1 -0 -1 -0 -0 1 1 1 1 1 1 1 1 1 1 1 1 1 1 1 1 1 0 0 0 -0 -0 -0 -1 -1
-1 -0 0 0 -0 -0 -0 -0 0 0 -0 -0 -0 -0 -1 -1 -0 -1 0 0 -0 1 1 0 1 1 1 1 1 1 1 1 1 1 0 -0 -0 -1 -0 -1 -1 -1 -1
-1 -1 -0 0 0 -0 -1 -1 -1 -1 -1 -0 -0 -0 -0 -1 -1 -1 -1 -1 -1 -0 -0 0 1 1 1 1 0 0 -0 -0 0 -0 0 -0 -1 -1 -1 -1 -1 -1 -2
-1 -0 -0 -0 -1 -1 -1 -1 -1 -1 -1 -1 -1 -1 -1 -0 -0 -0 0 -0 -1 -1 -2 -1 -0 -0 -0 -0 0 0 -0 -1 -1 -1 -1 -1 -1 -1 -1 -2 -2 -2 -3
-2 -2 -2 -1 -1 -1 -1 -2 -2 -2 -2 -2 -2 -2 -2 -1 -1 -1 -1 -0 -0 -0 -0 -0 -0 -1 -1 -1 -0 -1 -1 -1 -2 -2 -2 -2 -2 -2 -2 -3 -3 -3 -4
-3 -3 -3 -3 -3 -2 -1 -1 -2 -3 -3 -3 -3 -3 -2 -2 -2 -1 -1 -1 -0 0 1 0 0 0 0 -0 -1 -1 -1 -2 -2 -2 -2 -3 -3 -4 -5 -5 -4 -4 -5
-4 -4 -4 -4 -4 -3 -3 -3 -3 -2 -3 -3 -3 -3 -3 -3 -3 -2 -2 -2 -2 -1 -1 -0 -0 -0 -0 0 -1 -2 -0 -1 -3 -2 -2 -2 -2 -3 -3 -3 -3 -4 -5
-5 -5 -5 -5 -5 -4 -4 -4 -4 -4 -3 -3 -3 -3 -3 -3 -3 -3 -3 -3 -3 -2 -2 -1 -1 -1 -0 -1 -1 -1 -2 -2 -3 -2 -2 -2 -3 -2 -2 -3 -4 -4 -5
-6 -6 -6 -6 -6 -5 -5 -5 -5 -5 -5 -4 -4 -4 -3 -3 -3 -3 -3 -3 -3 -3 -2 -2 -2 -1 -1 -1 -1 -1 -1 -2 -2 -2 -3 -2 -3 -3 -3 -4 -5 -4 -6
-7 -7 -6 -6 -6 -5 -5 -6 -6 -5 -5 -5 -5 -5 -4 -4 -4 -3 -3 -3 -3 -3 -3 -2 -2 -2 -2 -2 -2 -2 -1 -1 -2 -4 -3 -3 -3 -3 -4 -5 -5 -5 -6
-8 -7 -7 -7 -7 -7 -6 -6 -6 -5 -5 -5 -5 -5 -5 -5 -5 -5 -4 -4 -4 -4 -4 -4 -4 -3 -2 -3 -3 -3 -4 -4 -4 -4 -5 -4 -4 -4 -5 -5 -5 -5 -6
-9 -9 -9 -9 -9 -9 -8 -8 -8 -7 -7 -7 -7 -6 -5 -5 -5 -5 -5 -5 -4 -4 -4 -4 -4 -4 -3 -3 -3 -3 -4 -5 -5 -5 -4 -4 -4 -5 -5 -5 -6 -6 -7
-10 -10 -11 -11 -11 -11 -11 -11 -10 -9 -8 -8 -7 -7 -7 -7 -6 -5 -5 -5 -5 -5 -5 -4 -4 -4 -4 -3 -3 -3 -3 -5 -4 -5 -4 -5 -5 -5 -5 -6 -6 -7 -7
-12 -12 -12 -12 -12 -12 -12 -11 -11 -11 -11 -10 -9 -8 -8 -7 -7 -7 -7 -7 -6 -6 -5 -5 -5 -5 -4 -4 -4 -4 -4 -5 -4 -5 -5 -5 -5 -6 -6 -6 -7 -7 -7
-13 -13 -12 -12 -12 -12 -12 -12 -12 -11 -12 -12 -11 -10 -9 -9 -8 -7 -7 -7 -7 -7 -7 -7 -6 -6 -5 -5 -6 -6 -6 -6 -5 -5 -5 -5 -6 -7 -7 -7 -8 -8 -7
-14 -13 -13 -13 -13 -12 -12 -13 -12 -12 -12 -13 -13 -12 -12 -11 -10 -9 -8 -8 -8 -8 -8 -8 -8 -8 -7 -7 -7 -7 -7 -6 -6 -5 -6 -7 -7 -8 -8 -8 -8 -8 -8
-14 -14 -13 -13 -13 -13 -13 -13 -13 -13 -12 -13 -13 -13 -13 -13 -11 -11 -10 -10 -9 -10 -10 -10 -9 -8 -8 -8 -7 -7 -7 -6 -6 -6 -6 -8 -8 -8 -8 -8 -8 -8 -8
-14 -14 -14 -14 -14 -14 -14 -14 -14 -14 -14 -13 -13 -13 -14 -13 -13 -12 -11 -11 -11 -10 -11 -10 -10 -9 -9 -8 -8 -8 -7 -7 -7 -8 -8 -8 -8 -8 -8 -8 -9 -8 -9
Height
3071 3075 3074 3079 3082 3076 3090 3094 3099 3102 3105 3111 3118 3122 3126 3129 3132 3135 3138 3142 3145 3148 3151 3153 3156 3159 3162 3164 3166 3167 3168 3170 3172 3172 3174 3175 3176 3177 3177 3177 3177 3178 3177
3070 3071 3073 3077 3078 3082 3082 3087 3092 3097 3102 3105 3111 3117 3121 3125 3127 3131 3135 3139 3141 3143 3145 3148 3151 3154 3156 3158 3160 3161 3163 3165 3166 3168 3168 3170 3172 3171 3173 3172 3172 3171 3171
3074 3074 3072 3075 3075 3080 3083 3083 3088 3094 3098 3101 3104 3109 3114 3119 3124 3128 3131 3133 3135 3138 3141 3143 3146 3148 3149 3152 3154 3156 3158 3160 3161 3162 3163 3163 3165 3167 3167 3168 3167 3167 3167
3076 3078 3079 3079 3081 3082 3085 3084 3086 3090 3094 3096 3099 3105 3111 3116 3120 3123 3126 3127 3130 3133 3135 3137 3139 3141 3144 3146 3148 3149 3151 3152 3154 3155 3156 3157 3159 3160 3161 3161 3162 3161 3161
3077 3079 3078 3084 3085 3084 3082 3082 3084 3086 3091 3093 3098 3100 3105 3110 3114 3116 3118 3120 3123 3126 3128 3131 3133 3136 3138 3140 3141 3142 3144 3146 3148 3150 3151 3151 3152 3153 3154 3154 3155 3154 3153
3082 3081 3084 3086 3085 3082 3081 3083 3082 3084 3084 3088 3093 3098 3101 3104 3108 3110 3112 3115 3117 3119 3122 3124 3126 3128 3130 3132 3134 3135 3137 3139 3140 3141 3142 3143 3144 3145 3145 3146 3146 3146 3146
3085 3084 3085 3085 3085 3086 3086 3086 3085 3084 3083 3084 3087 3094 3097 3100 3102 3104 3107 3108 3111 3114 3117 3118 3119 3121 3123 3124 3125 3126 3127 3128 3129 3132 3133 3134 3134 3135 3136 3137 3137 3137 3138
3088 3087 3086 3086 3085 3085 3084 3085 3086 3086 3088 3085 3085 3087 3091 3093 3096 3098 3100 3103 3105 3107 3109 3110 3111 3112 3113 3115 3116 3117 3119 3120 3120 3121 3123 3125 3125 3125 3126 3127 3128 3128 3128
3087 3087 3086 3085 3084 3084 3084 3083 3083 3085 3085 3085 3084 3084 3084 3087 3089 3092 3093 3096 3098 3101 3102 3103 3103 3105 3106 3107 3108 3108 3110 3112 3113 3113 3115 3116 3116 3117 3118 3118 3120 3120 3119
3089 3087 3087 3085 3083 3082 3081 3081 3080 3080 3080 3080 3079 3080 3081 3080 3080 3082 3084 3086 3090 3090 3093 3094 3095 3096 3096 3098 3098 3098 3100 3101 3104 3104 3105 3106 3107 3108 3108 3109 3109 3110 3110
3088 3087 3084 3082 3080 3078 3078 3077 3077 3076 3076 3076 3074 3074 3073 3073 3074 3074 3075 3076 3079 3081 3081 3083 3083 3084 3086 3087 3086 3088 3089 3090 3091 3093 3094 3094 3096 3096 3098 3099 3100 3100 3100
3086 3085 3083 3081 3079 3077 3075 3074 3073 3073 3073 3071 3069 3068 3067 3067 3067 3068 3069 3069 3070 3070 3070 3073 3073 3072 3072 3073 3075 3074 3075 3077 3080 3082 3083 3085 3085 3086 3087 3088 3089 3089 3089
3081 3081 3081 3079 3078 3076 3074 3072 3070 3068 3066 3066 3065 3064 3062 3061 3061 3060 3060 3060 3061 3061 3062 3063 3063 3063 3063 3063 3061 3061 3061 3061 3064 3069 3070 3072 3073 3075 3076 3079 3079 3079 3078
3077 3076 3075 3074 3074 3073 3071 3068 3066 3065 3064 3061 3059 3058 3055 3055 3053 3053 3052 3051 3050 3051 3051 3052 3052 3052 3052 3052 3051 3051 3051 3052 3054 3056 3057 3058 3060 3061 3063 3065 3067 3065 3065
3072 3070 3069 3068 3067 3065 3065 3064 3062 3060 3058 3057 3055 3052 3050 3049 3047 3045 3044 3044 3043 3043 3042 3041 3040 3040 3040 3041 3039 3039 3040 3044 3045 3047 3047 3048 3050 3050 3051 3055 3056 3054 3054
3068 3065 3063 3061 3059 3057 3056 3055 3054 3052 3050 3048 3046 3044 3042 3041 3039 3038 3037 3037 3036 3035 3033 3031 3031 3030 3031 3030 3030 3030 3030 3032 3034 3034 3035 3039 3040 3042 3042 3043 3044 3043 3044
3062 3059 3058 3056 3053 3050 3047 3046 3044 3042 3040 3039 3038 3035 3033 3031 3029 3028 3028 3027 3026 3025 3024 3023 3022 3020 3019 3019 3019 3019 3019 3020 3022 3025 3025 3026 3029 3030 3031 3031 3030 3032 3034
3055 3053 3051 3048 3045 3042 3039 3037 3034 3031 3027 3025 3024 3022 3019 3017 3018 3017 3016 3016 3014 3014 3013 3011 3010 3009 3009 3008 3007 3007 3006 3007 3008 3012 3016 3017 3019 3019 3021 3019 3021 3022 3023
3044 3040 3036 3032 3030 3027 3023 3018 3016 3013 3012 3010 3007 3005 3004 3002 3002 3002 3003 3002 3000 3000 3001 3000 2999 2998 2998 2998 2997 2995 2996 2996 2995 2997 3000 3004 3008 3009 3011 3008 3011 3011 3015
3032 3029 3025 3020 3015 3012 3008 3003 2998 2994 2992 2989 2986 2985 2983 2982 2981 2982 2984 2985 2984 2984 2985 2986 2986 2986 2986 2987 2987 2985 2984 2985 2984 2988 2988 2995 2996 2996 2998 2999 2999 3002 3007
3027 3022 3016 3011 3005 3001 2997 2993 2989 2984 2979 2974 2970 2966 2964 2962 2961 2961 2962 2962 2963 2965 2968 2969 2971 2971 2973 2976 2974 2972 2973 2976 2974 2978 2979 2983 2986 2986 2987 2989 2991 2995 2997
3022 3017 3010 3006 2999 2993 2987 2983 2976 2969 2964 2960 2955 2952 2948 2944 2942 2940 2941 2943 2943 2945 2948 2950 2952 2954 2957 2958 2959 2958 2961 2963 2964 2965 2967 2972 2975 2976 2977 2979 2982 2984 2990
3010 3007 3004 3001 2995 2988 2979 2972 2965 2959 2953 2946 2938 2932 2929 2926 2925 2923 2923 2924 2925 2926 2930 2933 2935 2938 2940 2942 2943 2943 2945 2948 2951 2953 2956 2960 2962 2965 2968 2969 2972 2976 2980
3004 3000 2995 2991 2987 2982 2975 2966 2958 2950 2943 2936 2928 2919 2913 2909 2906 2905 2906 2907 2909 2911 2913 2916 2918 2922 2925 2927 2929 2929 2932 2935 2937 2939 2942 2945 2950 2955 2957 2959 2962 2968 2971
2998 2993 2988 2983 2978 2972 2965 2958 2951 2944 2936 2928 2919 2909 2901 2896 2892 2891 2891 2892 2895 2896 2900 2901 2904 2906 2909 2913 2916 2916 2919 2922 2926 2927 2929 2932 2936 2940 2945 2949 2955 2959 2963
2990 2986 2981 2976 2971 2965 2958 2951 2945 2937 2929 2921 2912 2903 2893 2886 2882 2879 2879 2882 2883 2884 2887 2890 2891 2893 2895 2898 2901 2903 2906 2910 2912 2914 2917 2921 2926 2931 2936 2942 2946 2950 2955
Wind_Speed
4 7 14 13 15 20 27 24 21 28 31 29 28 29 29 30 30 30 30 28 26 25 24 25 24 23 21 21 21 21 21 22 21 21 21 21 21 22 21 20 20 21 22
7 5 1 13 11 17 22 9 17 27 32 30 28 30 30 31 30 30 28 26 26 27 28 27 25 23 23 24 23 23 23 23 23 22 23 25 24 24 23 23 23 24 25
15 15 11 1 4 9 13 28 19 27 31 32 31 30 33 32 30 28 27 28 30 29 27 26 26 27 27 26 25 25 24 23 25 25 26 27 26 25 25 25 26 27 27
18 13 17 15 11 6 6 14 34 22 31 34 34 32 30 29 27 25 26 27 27 27 28 29 29 29 29 28 27 27 27 28 28 29 28 28 27 28 27 27 26 28 28
18 17 13 13 10 13 13 6 13 23 22 31 33 34 32 30 29 29 29 29 28 29 29 29 30 29 29 29 30 30 30 30 30 29 28 29 29 30 29 29 28 30 30
12 10 9 7 7 8 11 8 5 13 27 27 32 33 32 31 30 29 29 29 30 30 30 30 30 31 31 31 31 31 32 31 32 32 32 32 32 31 31 31 31 32 32
15 14 8 4 5 2 1 6 6 3 8 24 28 29 29 29 30 30 30 30 30 29 28 29 29 30 31 32 33 34 35 35 36 35 35 34 35 34 34 35 35 36 35
9 8 7 7 6 2 5 7 8 8 8 4 18 26 26 26 27 28 28 30 31 30 30 32 33 33 34 34 35 37 38 38 39 39 38 38 38 39 39 39 37 39 39
7 8 8 6 5 5 5 5 9 12 13 15 12 11 17 32 25 26 31 32 31 29 31 34 35 36 37 37 39 40 39 40 40 40 40 41 41 42 41 41 41 41 43
8 8 9 9 8 9 8 8 7 11 15 17 18 18 20 18 22 43 33 32 33 32 32 39 38 39 40 41 42 43 43 43 42 43 43 42 42 43 43 43 43 44 44
12 12 14 13 10 10 12 13 13 14 13 15 18 21 23 25 28 28 31 49 45 35 35 38 35 34 42 44 46 49 46 45 44 45 46 45 45 45 46 45 46 46 46
10 10 12 12 13 13 14 16 18 19 21 21 21 22 24 26 27 29 30 34 37 36 35 39 46 40 46 40 46 54 53 48 47 44 45 46 46 46 47 46 47 47 47
7 8 9 11 13 14 15 15 16 16 16 16 19 22 24 25 28 29 31 32 32 34 37 38 41 44 42 45 37 36 51 53 49 49 49 48 48 49 46 46 47 47 47
11 12 13 13 14 15 18 20 18 16 15 15 15 16 19 22 24 26 27 30 32 35 35 36 36 37 37 43 41 40 29 36 46 52 58 54 53 50 47 46 49 54 55
14 16 17 19 19 20 21 22 24 25 24 23 22 22 21 21 21 21 23 25 27 27 31 34 35 35 36 38 40 38 39 41 36 36 29 37 38 49 51 40 34 40 45
19 21 21 23 25 27 28 30 30 31 33 33 33 33 33 31 29 27 22 20 21 24 26 29 31 34 35 33 36 40 34 36 42 35 35 32 30 25 27 31 30 31 34
26 26 27 29 31 34 37 38 39 40 41 41 39 40 41 41 39 37 34 30 28 27 25 24 24 28 33 34 34 35 40 42 40 42 38 34 34 35 34 33 33 36 37
36 38 41 42 43 44 45 47 48 50 52 51 51 50 50 50 47 47 46 43 41 38 35 32 31 29 26 30 35 36 36 38 39 40 34 32 35 34 35 35 36 36 33
46 49 50 50 52 54 55 55 55 55 56 59 60 61 61 61 58 56 55 54 52 49 46 42 39 36 34 32 32 38 36 34 34 34 38 42 35 35 38 34 36 33 32
45 42 42 43 43 44 49 50 51 51 51 50 52 57 63 65 65 64 63 63 60 57 54 51 46 43 42 41 38 38 40 33 36 36 31 36 37 36 39 36 33 32 32
37 38 35 35 36 36 35 35 36 39 41 45 48 47 48 51 58 63 63 59 62 62 61 59 55 50 47 45 40 42 41 39 35 36 38 38 36 37 39 35 32 32 35
25 25 27 27 28 31 32 33 35 37 37 39 40 41 45 49 48 49 53 55 54 54 53 52 50 47 43 41 41 42 41 38 41 40 40 37 35 37 36 33 32 36 36
26 26 24 23 27 31 35 36 39 40 39 40 42 43 41 41 43 46 46 48 51 51 51 51 51 48 44 43 42 41 40 39 39 41 40 37 37 39 34 34 36 37 37
27 28 30 31 30 30 32 35 39 42 45 45 46 39 39 39 38 40 41 41 44 46 47 48 49 49 46 43 44 41 39 41 43 39 38 37 39 37 38 37 40 39 37
28 28 30 31 32 32 33 35 38 41 44 47 47 46 37 32 32 32 34 36 38 41 39 41 43 46 46 42 41 39 36 37 38 40 42 39 43 45 42 41 39 40 36
29 30 31 33 33 32 33 35 37 39 43 47 46 48 41 31 27 25 27 29 32 36 35 33 36 40 37 37 39 40 37 35 35 37 41 45 46 42 41 41 42 38 32
Wind_Direction
207 285 247 275 237 215 206 208 225 218 209 214 219 218 216 216 215 214 215 215 216 217 219 222 225 228 230 230 231 233 236 240 245 248 252 256 258 261 263 264 267 269 271
50 52 90 305 298 270 235 259 226 220 214 210 215 220 221 221 218 216 217 219 221 221 222 224 226 230 232 234 235 238 240 244 248 251 252 255 259 262 265 266 264 264 266
82 68 78 349 248 233 281 250 271 216 219 214 215 218 220 219 220 220 220 222 224 226 227 228 229 230 232 234 236 239 243 247 249 250 253 256 261 265 264 267 269 271 274
51 86 76 80 98 82 311 263 259 220 218 217 215 217 220 220 220 222 225 228 228 230 230 232 233 234 236 237 239 240 241 243 246 249 253 257 261 262 264 266 269 270 271
51 46 65 51 38 55 58 230 224 226 220 222 222 218 219 220 218 218 220 223 226 229 230 232 236 239 242 243 243 244 244 246 248 252 255 257 259 260 263 265 266 267 269
46 61 48 48 55 25 19 7 9 234 228 223 225 227 220 219 220 222 224 227 228 229 230 233 235 238 240 243 246 247 248 250 250 251 251 254 256 258 259 260 260 263 264
48 58 53 22 348 28 59 337 349 312 248 227 219 223 222 225 224 225 228 230 233 235 236 238 239 241 244 245 247 247 247 248 249 249 251 250 252 253 254 256 259 261 264
25 25 17 20 43 294 227 227 275 295 315 267 236 216 215 219 227 232 235 239 239 239 239 241 241 241 242 243 245 248 249 249 250 251 250 251 250 251 253 255 256 260 263
5 11 360 332 324 324 327 269 256 242 272 265 283 268 242 233 224 235 241 244 243 246 245 247 250 250 251 250 250 250 252 254 254 255 255 255 255 256 257 259 261 263 267
344 340 334 332 309 278 279 278 266 256 261 261 253 245 258 248 252 232 240 240 239 242 245 250 254 256 254 256 254 255 253 253 256 258 256 257 259 259 260 260 262 264 266
335 326 319 316 307 283 269 268 265 264 257 258 262 264 262 260 267 268 250 249 244 254 250 249 251 254 254 257 258 256 255 252 252 252 255 255 255 257 260 262 264 266 267
314 325 326 316 301 287 274 267 267 266 263 264 261 259 263 264 262 261 258 255 262 261 264 261 257 258 257 264 257 258 251 248 253 254 255 256 258 259 260 262 265 267 268
264 263 280 295 295 290 282 276 270 266 261 261 263 265 265 265 267 268 265 263 263 263 261 263 263 263 263 268 263 267 260 254 246 250 251 252 254 256 259 263 265 268 268
250 249 253 253 249 262 283 277 267 258 254 252 247 250 257 265 269 270 270 268 267 266 264 263 264 260 269 261 278 273 263 259 258 254 255 251 251 251 255 260 263 266 265
268 264 256 255 256 252 246 242 248 257 261 262 265 265 262 261 261 265 270 273 271 271 271 269 268 268 268 264 263 267 277 271 281 276 275 268 271 269 262 268 282 284 277
279 277 272 267 266 266 265 264 262 259 259 261 266 269 271 271 269 267 264 267 271 273 275 275 275 275 272 272 269 263 258 266 264 259 260 259 268 254 256 261 267 267 266
288 289 287 284 283 280 274 270 269 267 266 265 264 264 265 268 269 270 270 271 272 275 277 280 285 282 277 275 269 265 262 253 255 259 263 250 253 253 264 261 261 265 265
301 298 297 297 296 293 288 283 279 274 272 270 268 267 267 266 266 267 268 268 271 274 277 278 281 286 296 286 278 274 266 261 255 254 251 252 254 254 259 262 261 261 255
309 309 310 309 306 305 302 299 296 289 278 273 272 270 268 268 268 267 267 268 269 271 275 279 281 283 286 292 289 281 269 264 256 254 256 249 253 251 253 257 261 253 247
312 312 311 311 308 303 301 301 299 296 291 286 281 274 268 267 268 268 269 267 266 267 270 272 276 281 283 284 287 283 272 256 262 249 245 245 241 245 249 254 252 247 243
305 307 312 314 315 315 315 311 304 297 293 289 286 284 279 277 271 268 266 265 266 266 268 270 270 274 276 278 277 282 272 255 254 248 247 248 246 245 249 255 248 241 240
304 306 312 318 322 325 326 330 330 326 319 307 293 282 276 272 271 269 264 259 259 257 260 261 262 263 262 264 265 271 270 250 247 248 242 242 241 246 245 247 239 236 240
313 315 315 315 321 326 330 335 337 337 335 328 314 300 286 274 267 263 264 260 258 257 255 254 254 253 251 254 253 258 261 252 248 248 246 238 239 241 245 240 235 236 233
310 312 313 315 318 320 323 329 333 334 334 333 334 320 302 289 276 265 259 257 257 257 258 256 253 254 254 253 249 249 252 250 248 242 233 227 234 237 240 237 234 232 226
308 310 312 314 318 322 325 328 329 330 332 332 334 335 320 303 289 274 261 256 257 257 260 260 256 254 253 254 254 252 251 252 247 241 229 222 225 232 232 231 229 226 224
310 312 315 315 315 318 324 325 327 329 332 331 333 337 328 316 303 283 264 256 256 257 250 255 262 258 255 252 250 249 249 253 241 236 227 224 229 234 235 231 227 223 219